This demonstration page uses our WeatherBlox Daily Observations layout. Learn more.

Left ArrowRight Arrow

41.86663, -103.66717

Hourly Observations for March 18, 2020

Temp ( °F °C ) Dew Point ( °F °C ) Humidity (%) Winds ( mph kmh ) Pressure ( in mb ) Visibility ( mi km ) Precip ( " mm )
12:37 am 00:37 Partly Cloudy with Mist and Fog 34 1.1 34 1.1 100 100 E 9 15 29.91 1013 5 8 N/A
12:42 am 00:42 Mostly Cloudy with Mist and Fog 36 2 36 2 100 100 E 8 13 29.90 1012 3 4 N/A
12:49 am 00:49 Mostly Cloudy with Mist and Fog 36 2 36 2 100 100 E 9 15 29.90 1012 1 1 N/A
12:50 am 00:50 Mostly Cloudy with Fog 35 1.7 35 1.7 100 100 E 9 15 29.83 1010 1 1 N/A
12:59 am 00:59 Mostly Cloudy with Fog 35 1.7 35 1.7 100 100 E 7 11 29.90 1013 0 0 N/A
1:53 am 01:53 Mostly Cloudy with Fog 35 1.7 35 1.7 100 100 E 8 13 29.83 1010 0 0 N/A
2:53 am 02:53 Mostly Cloudy with Fog 35 1.7 35 1.7 100 100 E 3 6 29.82 1010 0 0 N/A
3:09 am 03:09 Mostly Cloudy with Fog 34 1.1 34 1.1 100 100 N N/A 29.92 1013 1 1 N/A
3:40 am 03:40 Mostly Cloudy with Fog 36 2 36 2 100 100 E 6 9 29.90 1012 0 0 N/A
3:53 am 03:53 Mostly Cloudy with Fog 34 1.1 34 1.1 100 100 SE 7 11 29.81 1010 0 0 N/A
4:11 am 04:11 Mostly Cloudy with Fog 33 0.6 33 0.6 100 100 ESE 5 7 29.91 1013 0 0 N/A
4:53 am 04:53 Mostly Cloudy with Fog 34 1.1 34 1.1 100 100 VRB 3 6 29.83 1010 1 1 N/A
5:23 am 05:23 Mostly Cloudy with Fog 33 0.6 33 0.6 100 100 WSW 5 7 29.95 1014 0 0 N/A
5:50 am 05:50 Mostly Cloudy with Fog 34 1 34 1 100 100 W 6 9 29.95 1014 0 0 N/A
5:53 am 05:53 Mostly Cloudy with Fog 33 0.6 33 0.6 100 100 W 5 7 29.86 1011 0 0 N/A
6:17 am 06:17 Mostly Cloudy with Fog 32 undefined 32 undefined 100 100 WNW 5 7 29.98 1015 0 0 N/A
6:53 am 06:53 Mostly Cloudy with Fog 33 0.6 32 undefined 96 96 W 6 9 29.89 1012 0 0 N/A
7:53 am 07:53 Mostly Cloudy with Fog 32 undefined 32 undefined 100 100 NW 7 11 29.93 1013 0 0 N/A
8:23 am 08:23 Cloudy with Mist and Fog 32 undefined 32 undefined 100 100 NW 6 9 30.01 1016 1 1 N/A
8:28 am 08:28 Cloudy with Mist and Fog 33 0.6 33 0.6 100 100 WNW 7 11 30.00 1016 1 2 N/A
8:39 am 08:39 Cloudy with Mist and Fog 33 0.6 33 0.6 100 100 WNW 7 11 30.01 1016 3 5 N/A
8:53 am 08:53 Cloudy 34 1.1 34 1.1 100 100 WNW 7 11 29.94 1014 9 14 N/A
10:53 am 10:53 Cloudy 39 3.9 37 2.8 93 93 NE 8 13 29.93 1014 10 16 N/A
11:53 am 11:53 Cloudy 40 4.4 37 2.8 89 89 NE 7 11 29.94 1014 10 16 N/A
12:53 pm 12:53 Cloudy 41 5 37 2.8 86 86 NE 7 11 29.92 1013 10 16 N/A
1:36 pm 13:36 Cloudy 42 5.6 37 2.8 82 82 E 7 11 29.89 1012 10 16 N/A
1:53 pm 13:53 Cloudy 42 5.6 38 3.3 85 85 E 10 17 29.87 1012 10 16 N/A
2:53 pm 14:53 Cloudy 44 6.7 38 3.3 79 79 ESE 8 13 29.85 1011 10 16 N/A
3:50 pm 15:50 Cloudy 45 7 37 3 76 76 E 8 13 29.80 1009 10 16 N/A
3:53 pm 15:53 Cloudy 45 7.2 38 3.3 77 77 ENE 10 17 29.82 1010 10 16 N/A
4:53 pm 16:53 Mostly Cloudy 46 7.8 38 3.3 73 73 NE 6 9 29.82 1010 10 16 N/A
5:53 pm 17:53 Cloudy 44 6.7 38 3.3 79 79 N 13 20 29.84 1010 10 16 N/A
6:53 pm 18:53 Cloudy 43 6.1 37 2.8 80 80 NNE 12 19 29.86 1011 10 16 N/A
7:53 pm 19:53 Cloudy 43 6.1 36 2.2 76 76 NE 14 22 29.87 1012 10 16 N/A
8:53 pm 20:53 Cloudy with Light Rain 41 5 39 3.9 93 93 ENE 9 15 29.88 1012 10 16 0.01 0.25
9:34 pm 21:34 Cloudy with Light Rain 40 4.4 39 3.9 97 97 ENE 9 15 29.87 1012 10 16 0.01 0.25
9:51 pm 21:51 Cloudy with Light Rain 39 4 39 4 100 100 ENE 10 17 29.89 1012 10 16 0.02 0.51
9:53 pm 21:53 Cloudy with Light Rain 40 4.4 39 3.9 97 97 ENE 8 13 29.86 1011 10 16 0.02 0.51
10:53 pm 22:53 Cloudy 40 4.4 39 3.9 97 97 E 15 24 29.81 1010 10 16 0.00 0.00
11:53 pm 23:53 Cloudy with Light Rain 40 4.4 39 3.9 97 97 SE 9 15 29.80 1009 10 16 0.01 0.25

Powered by AerisWeather